Weather History for KLSB - April, 2013

Change the Weather History Date:

Thursday, April 18, 2013

  Actual Average Record
Temperature  
Mean Temperature 47 °F -  
Max Temperature 62 °F 78 °F 73 °F (2014)
Min Temperature 32 °F 39 °F 32 °F (2013)
Degree Days  
Heating Degree Days 18    
Moisture  
Dew Point 8 °F    
Average Humidity 23    
Maximum Humidity 52    
Minimum Humidity 6    
Precipitation  
Precipitation 0.00 in - - ()
Sea Level Pressure  
Sea Level Pressure 30.08 in    
Wind  
Wind Speed 8 mph (NW)    
Max Wind Speed 23 mph    
Max Gust Speed 29 mph    
Visibility 10 miles    
Events      
Averages and records for this station are not official NWS values.
T = Trace of Precipitation, MM = Missing Value Source: NWS Daily Summary

Daily Weather History Graph

Daily Weather History Graph

Search for Another Location

Airport or City:

Trip Planner

Search our weather history database for the weather conditions in past years. The results will help you decide how hot, cold, wet, or windy it might be!

Date:

Astronomy

Apr. 18, 2013 Rise Set
Actual Time 6:41 AM MDT 7:46 PM MDT
Civil Twilight 6:16 AM MDT 8:12 PM MDT
Nautical Twilight 5:46 AM MDT 8:42 PM MDT
Astronomical Twilight 5:15 AM MDT 9:13 PM MDT
Moon 1:00 PM MDT (4/18) 1:58 AM MDT (4/18)
Length of Visible Light 13h 55m
Length of Day
13h 04m
First Quarter, 52% of the Moon is Illuminated
Apr 18
First Quarter
Apr 25
Full
May 2
Last Quarter
May 9
New
May 17
First Quarter

Hourly Weather History & Observations

Time (MDT) Temp. Windchill Dew Point Humidity Pressure Visibility Wind Dir Wind Speed Gust Speed Precip Events Conditions
12:15 AM 44.6 °F 40.7 °F 10.4 °F 25% 30.01 in 10.0 mi WNW 6.9 mph - N/A   Clear
12:35 AM 42.8 °F 41.1 °F 10.4 °F 27% 30.02 in 10.0 mi North 3.5 mph - N/A   Clear
12:55 AM 41.0 °F 38.0 °F 10.4 °F 29% 30.02 in 10.0 mi NNW 4.6 mph - N/A   Clear
1:15 AM 41.0 °F 38.0 °F 10.4 °F 29% 30.01 in 10.0 mi NNW 4.6 mph - N/A   Clear
1:35 AM 37.4 °F 33.8 °F 8.6 °F 30% 30.02 in 10.0 mi NW 4.6 mph - N/A   Clear
1:55 AM 37.4 °F 32.1 °F 8.6 °F 30% 30.02 in 10.0 mi WNW 6.9 mph - N/A   Clear
2:15 AM 35.6 °F 29.9 °F 8.6 °F 33% 30.02 in 10.0 mi West 6.9 mph - N/A   Clear
2:35 AM 35.6 °F 29.9 °F 8.6 °F 33% 30.02 in 10.0 mi West 6.9 mph - N/A   Clear
2:55 AM 37.4 °F 31.4 °F 8.6 °F 30% 30.01 in 10.0 mi West 8.1 mph - N/A   Clear
3:15 AM 37.4 °F 30.3 °F 8.6 °F 30% 30.01 in 10.0 mi West 10.4 mph - N/A   Clear
3:35 AM 39.2 °F 32.5 °F 8.6 °F 28% 30.02 in 10.0 mi WNW 10.4 mph - N/A   Clear
3:55 AM 37.4 °F 30.8 °F 10.4 °F 33% 30.02 in 10.0 mi WNW 9.2 mph - N/A   Clear
4:15 AM 37.4 °F 31.4 °F 10.4 °F 33% 30.03 in 10.0 mi WNW 8.1 mph - N/A   Clear
4:35 AM 37.4 °F - 12.2 °F 36% 30.03 in 10.0 mi Calm Calm - N/A   Clear
4:55 AM 35.6 °F 31.7 °F 12.2 °F 38% 30.03 in 10.0 mi West 4.6 mph - N/A   Clear
5:15 AM 35.6 °F 31.7 °F 14.0 °F 41% 30.03 in 10.0 mi WNW 4.6 mph - N/A   Clear
5:35 AM 33.8 °F 29.6 °F 14.0 °F 44% 30.03 in 10.0 mi WNW 4.6 mph - N/A   Clear
5:55 AM 33.8 °F 29.6 °F 14.0 °F 44% 30.04 in 10.0 mi WNW 4.6 mph - N/A   Clear
6:15 AM 33.8 °F 29.6 °F 14.0 °F 44% 30.04 in 10.0 mi WNW 4.6 mph - N/A   Clear
6:35 AM 33.8 °F 30.8 °F 17.6 °F 52% 30.05 in 10.0 mi WNW 3.5 mph - N/A   Clear
6:55 AM 32.0 °F 28.7 °F 15.8 °F 51% 30.06 in 10.0 mi NW 3.5 mph - N/A   Clear
7:15 AM 33.8 °F - 15.8 °F 48% 30.07 in 10.0 mi Calm Calm - N/A   Clear
7:35 AM 37.4 °F - 15.8 °F 41% 30.08 in 10.0 mi Calm Calm - N/A   Clear
7:55 AM 41.0 °F 39.0 °F 19.4 °F 42% 30.08 in 10.0 mi NW 3.5 mph - N/A   Clear
8:15 AM 42.8 °F 41.1 °F 19.4 °F 39% 30.09 in 10.0 mi NNW 3.5 mph - N/A   Clear
8:35 AM 42.8 °F 41.1 °F 19.4 °F 39% 30.10 in 10.0 mi NW 3.5 mph - N/A   Clear
8:55 AM 46.4 °F 42.4 °F 19.4 °F 34% 30.10 in 10.0 mi NW 8.1 mph - N/A   Clear
9:15 AM 46.4 °F 42.4 °F 19.4 °F 34% 30.10 in 10.0 mi NW 8.1 mph - N/A   Clear
9:35 AM 48.2 °F - 17.6 °F 30% 30.10 in 10.0 mi NNW 6.9 mph - N/A   Clear
9:55 AM 50.0 °F - 17.6 °F 28% 30.10 in 10.0 mi NNW 6.9 mph - N/A   Clear
10:15 AM 50.0 °F - 17.6 °F 28% 30.10 in 10.0 mi West 5.8 mph - N/A   Clear
10:35 AM 50.0 °F - 15.8 °F 26% 30.11 in 10.0 mi Calm Calm - N/A   Clear
10:55 AM 51.8 °F - 14.0 °F 22% 30.10 in 10.0 mi WNW 5.8 mph - N/A   Clear
11:15 AM 53.6 °F - 12.2 °F 19% 30.10 in 10.0 mi WNW 13.8 mph 18.4 mph N/A   Clear
11:35 AM 53.6 °F - 10.4 °F 18% 30.10 in 10.0 mi West 13.8 mph 19.6 mph N/A   Clear
11:55 AM 55.4 °F - 6.8 °F 14% 30.10 in 10.0 mi WNW 17.3 mph 24.2 mph N/A   Clear
12:15 PM 53.6 °F - 6.8 °F 15% 30.10 in 10.0 mi NNW 10.4 mph 21.9 mph N/A   Clear
12:35 PM 55.4 °F - 5.0 °F 13% 30.10 in 10.0 mi NW 19.6 mph 25.3 mph N/A   Clear
12:55 PM 57.2 °F - 5.0 °F 12% 30.09 in 10.0 mi NW 16.1 mph 21.9 mph N/A   Clear
1:15 PM 59.0 °F - 3.2 °F 11% 30.08 in 10.0 mi NW 15.0 mph 23.0 mph N/A   Clear
1:35 PM 59.0 °F - -5.8 °F 7% 30.08 in 10.0 mi WNW 23.0 mph 28.8 mph N/A   Clear
1:55 PM 59.0 °F - -7.6 °F 6% 30.08 in 10.0 mi NW 16.1 mph 26.5 mph N/A   Clear
2:35 PM 59.0 °F - -2.2 °F 8% 30.08 in 10.0 mi WNW 15.0 mph 24.2 mph N/A   Clear
2:55 PM 60.8 °F - -0.4 °F 8% 30.07 in 10.0 mi NW 19.6 mph 25.3 mph N/A   Clear
3:15 PM 60.8 °F - 1.4 °F 9% 30.07 in 10.0 mi NW 17.3 mph 25.3 mph N/A   Clear
3:35 PM 60.8 °F - 3.2 °F 10% 30.06 in 10.0 mi West 15.0 mph 24.2 mph N/A   Clear
3:55 PM 60.8 °F - 1.4 °F 9% 30.06 in 10.0 mi NW 12.7 mph 21.9 mph N/A   Clear
4:15 PM 62.6 °F - 1.4 °F 9% 30.06 in 10.0 mi WNW 12.7 mph 24.2 mph N/A   Clear
4:35 PM 60.8 °F - -0.4 °F 8% 30.06 in 10.0 mi NW 11.5 mph 23.0 mph N/A   Clear
4:55 PM 60.8 °F - -0.4 °F 8% 30.06 in 10.0 mi West 9.2 mph 27.6 mph N/A   Clear
5:15 PM 62.6 °F - -0.4 °F 8% 30.05 in 10.0 mi WNW 15.0 mph 20.7 mph N/A   Clear
5:35 PM 62.6 °F - -0.4 °F 8% 30.06 in 10.0 mi NW 17.3 mph 23.0 mph N/A   Clear
5:55 PM 62.6 °F - -0.4 °F 8% 30.06 in 10.0 mi WNW 12.7 mph 20.7 mph N/A   Clear
6:15 PM 60.8 °F - -0.4 °F 8% 30.06 in 10.0 mi WNW 13.8 mph 20.7 mph N/A   Clear
6:35 PM 60.8 °F - 1.4 °F 9% 30.06 in 10.0 mi WNW 10.4 mph 18.4 mph N/A   Clear
6:55 PM 60.8 °F - 1.4 °F 9% 30.07 in 10.0 mi WNW 12.7 mph 17.3 mph N/A   Clear
7:15 PM 59.0 °F - 1.4 °F 10% 30.07 in 10.0 mi WNW 10.4 mph - N/A   Clear
7:35 PM 59.0 °F - 1.4 °F 10% 30.08 in 10.0 mi WNW 10.4 mph - N/A   Clear
8:55 PM 51.8 °F - 5.0 °F 15% 30.13 in 10.0 mi WNW 8.1 mph - N/A   Clear
9:35 PM 51.8 °F - 5.0 °F 15% 30.15 in 10.0 mi WNW 8.1 mph - N/A   Clear
9:55 PM 50.0 °F - 5.0 °F 16% 30.16 in 10.0 mi WNW 6.9 mph - N/A   Clear
10:15 PM 48.2 °F - 3.2 °F 16% 30.18 in 10.0 mi NNW 3.5 mph - N/A   Clear
10:35 PM 42.8 °F - 3.2 °F 19% 30.18 in 10.0 mi North - - N/A   Clear
10:55 PM 44.6 °F - 3.2 °F 18% 30.18 in 10.0 mi Calm Calm - N/A   Clear
11:15 PM 42.8 °F 41.1 °F 3.2 °F 19% 30.19 in 10.0 mi NW 3.5 mph - N/A   Clear
11:35 PM 44.6 °F 40.7 °F 3.2 °F 18% 30.19 in 10.0 mi North 6.9 mph - N/A   Clear
11:55 PM 46.4 °F 42.4 °F 1.4 °F 16% 30.19 in 10.0 mi North 8.1 mph - N/A   Clear